Location: *
(38.4303°S, 157.0822°W)
Time: 15:13:44
(UTC+00:00)

Timation 2 Rocket - Pass Details

Date: 21 May 2024
Orbit: 906 x 1074 km, 70.0° (Epoch: 22 June)

Event Time Altitude Azimuth Distance (km) Brightness Sun altitude
Exits shadow 16:04:16 - 202° (SSW) 3,447 6.5 -16.4°
Reaches altitude 10° 16:05:57 10° 200° (SSW) 2,841 6.1 -16.1°
Maximum altitude 16:12:39 73° 115° (ESE) 1,108 4.4 -14.8°
Drops below altitude 10° 16:19:29 10° 30° (NNE) 2,897 7.2 -13.5°
Sets 16:22:08 0° 28° (NNE) 3,852 7.8 -13.0°
